1495652400.73,30427,14.81,73496.5,-2.95,-3.75,-3.75,0,*5C
1495652401.97,30428,14.81,73496.3,-2.91,-3.71,-3.71,0,*57
1495652403.21,30429,14.81,73498.8,-2.95,-3.71,-3.67,0,*55
1495652404.45,30430,14.81,73502.3,-2.95,-3.71,-3.71,0,*5A
1495652405.69,30431,14.81,73500.5,-2.95,-3.71,-3.71,0,*5B
1495652406.93,30432,14.81,73496.0,-2.95,-3.71,-3.71,0,*58
1495652408.17,30433,14.81,73496.5,-2.91,-3.59,-3.71,0,*57
1495652409.41,30434,14.81,73498.3,-2.91,-3.71,-3.71,0,*5A
1495652410.64,30435,14.81,73496.0,-2.95,-3.75,-3.71,0,*5B
1495652411.85,30436,14.81,73496.8,-2.91,-3.75,-3.75,0,*58
1495652413.11,30437,14.81,73492.5,-2.89,-3.71,-3.71,0,*50
1495652414.32,30438,14.81,73498.3,-2.91,-3.75,-3.75,0,*56
1495652415.53,30439,14.81,73494.5,-2.95,-3.83,-3.75,0,*5A
1495652416.74,30440,14.81,73496.3,-2.91,-3.75,-3.83,0,*50
1495652418.0,30441,14.75,73492.0,-2.89,-3.71,-3.71,0,*51
1495652419.21,30442,14.81,73494.8,-2.95,-3.75,-3.75,0,*5F
1495652420.45,30443,14.81,73496.0,-2.91,-3.67,-3.67,0,*5A
1495652421.68,30444,14.81,73494.3,-2.95,-3.75,-3.71,0,*5D
1495652422.88,30445,14.81,73498.3,-2.91,-3.83,-3.87,0,*58
1495652424.09,30446,14.81,73492.5,-2.91,-3.75,-3.75,0,*5F
1495652425.3,30447,14.81,73498.8,-2.95,-3.75,-3.75,0,*5A
1495652426.51,30448,14.81,73492.8,-2.91,-3.75,-3.75,0,*51
1495652427.72,30449,14.81,73492.3,-2.91,-3.75,-3.75,0,*50
1495652428.93,30450,14.81,73494.0,-2.91,-3.75,-3.75,0,*58
1495652430.18,30451,14.81,73496.0,-2.91,-3.71,-3.71,0,*59
1495652431.39,30452,14.81,73494.8,-2.91,-3.75,-3.75,0,*5A
1495652432.6,30453,14.81,73496.0,-2.95,-3.75,-3.75,0,*5F
1495652433.8,30454,14.81,73496.5,-2.95,-3.75,-3.83,0,*51
1495652435.01,30455,14.81,73498.5,-2.91,-3.83,-3.83,0,*5D
1495652436.21,30456,14.81,73496.3,-2.95,-3.83,-3.83,0,*5A
1495652437.42,30457,14.81,73496.5,-2.95,-3.75,-3.75,0,*5B
1495652438.63,30458,14.81,73494.0,-2.91,-3.75,-3.75,0,*50
1495652439.84,30459,14.75,73490.0,-2.91,-3.75,-3.75,0,*51
1495652441.05,30460,14.81,73488.8,-2.91,-3.83,-3.75,0,*52
1495652442.26,30461,14.81,73488.3,-2.91,-3.75,-3.75,0,*5A
1495652443.47,30462,14.81,73484.8,-2.95,-3.75,-3.75,0,*5D
1495652444.68,30463,14.81,73484.8,-2.95,-3.75,-3.75,0,*5C
1495652445.89,30464,14.81,73484.5,-2.91,-3.75,-3.83,0,*56
1495652447.1,30465,14.81,73476.5,-2.91,-3.75,-3.75,0,*5E
1495652448.34,30466,14.81,73482.3,-2.91,-3.67,-3.67,0,*5D
1495652449.58,30467,14.81,73482.5,-2.95,-3.59,-3.71,0,*52
1495652450.82,30468,14.81,73480.0,-2.95,-3.71,-3.71,0,*57
1495652452.06,30469,14.81,73480.3,-2.95,-3.71,-3.71,0,*56
1495652453.3,30470,14.81,73480.3,-2.95,-3.71,-3.71,0,*5E
1495652454.51,30471,14.81,73476.8,-2.91,-3.83,-3.83,0,*5B
1495652455.71,30472,14.81,73470.8,-2.95,-3.95,-3.87,0,*5F
1495652456.91,30473,14.81,73470.3,-2.91,-3.95,-3.87,0,*5A
1495652458.12,30474,14.81,73478.3,-2.95,-3.83,-3.83,0,*5A
1495652459.32,30475,14.81,73476.5,-2.95,-3.87,-3.83,0,*5F
1495652460.52,30476,14.81,73478.0,-2.91,-3.87,-3.87,0,*5C
1495652461.72,30477,14.81,73486.3,-2.95,-3.87,-3.87,0,*59
1495652462.92,30478,14.81,73464.0,-2.95,-3.95,-3.95,0,*56
1495652464.14,30479,14.81,73462.3,-2.97,-4.13,-4.25,0,*50
1495652465.36,30480,14.75,73456.8,-2.97,-4.05,-4.13,0,*54
1495652466.59,30481,14.81,73462.5,-2.97,-4.05,-4.05,0,*52
1495652467.84,30482,14.81,73456.3,-2.97,-4.01,-4.05,0,*55
1495652469.09,30483,14.81,73466.3,-2.97,-4.01,-4.05,0,*54
1495652470.29,30484,14.81,73466.5,-2.99,-4.25,-4.25,0,*59
1495652471.51,30485,14.75,73460.0,-2.97,-4.17,-4.17,0,*56
1495652472.71,30486,14.81,73458.5,-2.99,-4.13,-4.13,0,*5B
1495652473.91,30487,14.81,73442.8,-2.99,-4.13,-4.25,0,*5F
1495652475.11,30488,14.81,73444.3,-2.99,-4.17,-4.25,0,*54
1495652476.33,30489,14.75,73434.8,-2.99,-4.05,-4.01,0,*50
1495652477.53,30490,14.81,73436.0,-2.99,-4.13,-4.17,0,*58
1495652478.73,30491,14.81,73438.8,-2.99,-4.25,-4.25,0,*5D
1495652479.96,30492,14.81,73442.5,-3.01,-4.21,-4.29,0,*56
1495652481.2,30493,14.81,73462.0,-3.01,-4.21,-4.21,0,*5F
1495652482.4,30494,14.75,73470.0,-3.03,-4.09,-4.09,0,*5A
1495652483.6,30495,14.81,73474.0,-3.03,-4.09,-4.09,0,*5B
1495652484.79,30496,14.81,73476.5,-3.03,-4.05,-3.95,0,*56
1495652485.99,30497,14.81,73482.8,-3.03,-4.17,-4.17,0,*59
1495652487.2,30498,14.75,73480.8,-3.03,-4.21,-4.29,0,*5E
1495652488.39,30499,14.81,73484.8,-3.03,-4.17,-4.17,0,*57
1495652489.59,30500,14.81,73488.3,-3.03,-4.33,-4.33,0,*56
1495652490.78,30501,14.81,73492.5,-3.03,-4.45,-4.41,0,*53
1495652491.98,30502,14.81,73490.3,-3.03,-4.41,-4.41,0,*54
1495652493.17,30503,14.81,73488.5,-3.03,-4.45,-4.41,0,*51
1495652494.41,30504,14.75,73480.3,-3.01,-4.21,-4.21,0,*50
1495652495.63,30505,14.81,73488.8,-3.05,-4.13,-4.25,0,*50
1495652496.85,30506,14.75,73486.0,-3.05,-4.13,-4.09,0,*5D
1495652498.05,30507,14.81,73486.3,-3.03,-3.95,-3.83,0,*56
1495652499.26,30508,14.81,73482.8,-3.03,-3.83,-3.91,0,*5D
1495652500.48,30509,14.81,73482.8,-3.05,-3.95,-3.95,0,*59
1495652501.71,30510,14.81,73484.3,-3.05,-3.95,-3.87,0,*52
1495652502.93,30511,14.81,73494.3,-3.05,-3.95,-3.87,0,*53
1495652504.15,30512,14.81,73490.3,-3.05,-3.95,-3.95,0,*53
1495652505.35,30513,14.81,73492.0,-3.03,-4.05,-4.05,0,*54
1495652506.55,30514,14.81,73490.3,-3.03,-4.09,-4.05,0,*5F
1495652507.78,30515,14.81,73488.3,-3.05,-4.21,-4.21,0,*54
1495652508.98,30516,14.81,73486.3,-3.07,-4.17,-4.25,0,*54
1495652510.2,30517,14.81,73484.0,-3.05,-4.33,-4.25,0,*51
1495652511.4,30518,14.75,73480.3,-3.07,-4.53,-4.41,0,*58
1495652512.6,30519,14.81,73476.3,-3.07,-4.61,-4.65,0,*5E
1495652513.8,30520,14.75,73468.8,-3.07,-4.53,-4.53,0,*50
1495652514.99,30521,14.81,73468.5,-3.07,-4.41,-4.41,0,*51
1495652516.19,30522,14.81,73462.0,-3.07,-4.29,-4.29,0,*52
1495652517.39,30523,14.81,73462.3,-3.07,-4.25,-4.17,0,*52
1495652518.62,30524,14.81,73450.3,-3.09,-4.29,-4.25,0,*56
1495652519.85,30525,14.81,73450.8,-3.09,-4.25,-4.25,0,*5B
1495652521.08,30526,14.81,73446.5,-3.09,-4.25,-4.37,0,*5B
1495652522.28,30527,14.81,73454.5,-3.07,-4.29,-4.29,0,*57
1495652523.51,30528,14.81,73460.5,-3.09,-4.41,-4.37,0,*57
1495652524.73,30529,14.81,73466.5,-3.09,-4.37,-4.37,0,*57
1495652525.95,30530,14.81,73468.3,-3.09,-4.53,-4.61,0,*5E
1495652527.17,30531,14.81,73476.0,-3.09,-4.49,-4.41,0,*56
1495652528.4,30532,14.75,73478.5,-3.09,-4.29,-4.29,0,*5D
1495652529.62,30533,14.81,73484.8,-3.09,-4.13,-4.13,0,*5C
1495652530.82,30534,14.81,73484.0,-3.11,-4.45,-4.57,0,*51
1495652532.04,30535,14.75,73484.3,-3.09,-4.61,-4.61,0,*5A
1495652533.27,30536,14.81,73486.3,-3.11,-4.65,-4.69,0,*5C
1495652534.46,30537,14.81,73490.3,-3.11,-4.45,-4.53,0,*56
1495652535.67,30538,14.81,73490.0,-3.11,-4.33,-4.21,0,*5D
1495652536.86,30539,14.81,73492.0,-3.11,-4.05,-4.05,0,*5F
1495652538.06,30540,14.81,73488.5,-3.11,-4.09,-4.17,0,*5E
1495652539.25,30541,14.81,73490.0,-3.11,-4.29,-4.17,0,*5D
1495652540.45,30542,14.81,73490.5,-3.11,-4.41,-4.53,0,*50
1495652541.66,30543,14.81,73488.8,-3.13,-4.41,-4.45,0,*54
1495652542.9,30544,14.81,73490.3,-3.13,-4.21,-4.21,0,*57
1495652544.12,30545,14.81,73490.0,-3.13,-4.29,-4.29,0,*56
1495652545.35,30546,14.81,73494.3,-3.13,-4.21,-4.29,0,*5D
1495652546.58,30547,14.81,73490.3,-3.13,-4.21,-4.21,0,*54
1495652547.8,30548,14.75,73490.5,-3.13,-4.09,-4.09,0,*5B
1495652549.06,30549,14.81,73490.8,-3.17,-4.01,-4.09,0,*56
1495652550.27,30550,14.81,73488.5,-3.13,-4.09,-4.17,0,*5D
1495652551.5,30551,14.81,73488.5,-3.13,-4.29,-4.21,0,*5B
1495652552.73,30552,14.81,73484.0,-3.13,-4.17,-4.21,0,*55
1495652553.96,30553,14.81,73486.8,-3.13,-4.21,-4.21,0,*51
1495652555.18,30554,14.81,73486.0,-3.13,-4.33,-4.33,0,*56
1495652556.39,30555,14.81,73486.5,-3.13,-4.45,-4.45,0,*57
1495652557.63,30556,14.81,73488.0,-3.17,-4.99,-4.85,0,*5D
1495652558.9,30557,14.81,73486.3,-3.17,-4.85,-4.85,0,*51
1495652560.15,30558,14.81,73486.5,-3.17,-4.61,-4.69,0,*56
1495652561.42,30559,14.75,73484.5,-3.17,-4.73,-4.81,0,*52
1495652562.69,30560,14.81,73488.0,-3.17,-4.73,-4.73,0,*55
1495652563.95,30561,14.75,73486.5,-3.17,-4.81,-4.81,0,*54
1495652565.22,30562,14.81,73490.5,-3.17,-4.81,-4.73,0,*5A
1495652566.49,30563,14.81,73488.0,-3.21,-4.85,-4.85,0,*53
1495652567.74,30564,14.81,73484.3,-3.19,-4.81,-4.85,0,*5B
1495652568.98,30565,14.81,73484.8,-3.21,-4.77,-4.65,0,*56
1495652570.2,30566,14.81,73476.0,-3.21,-4.49,-4.49,0,*56
1495652571.42,30567,14.81,73468.8,-3.21,-4.41,-4.41,0,*57
1495652572.62,30568,14.81,73470.8,-3.19,-4.29,-4.37,0,*5C
1495652573.84,30569,14.75,73458.3,-3.21,-4.37,-4.41,0,*58
1495652575.06,30570,14.81,73454.3,-3.21,-4.53,-4.49,0,*5A
1495652576.25,30571,14.81,73454.8,-3.23,-4.37,-4.41,0,*53
1495652577.45,30572,14.75,73458.8,-3.23,-4.29,-4.37,0,*5E
1495652578.67,30573,14.81,73474.5,-3.21,-4.37,-4.37,0,*52
1495652579.87,30574,14.81,73474.5,-3.23,-4.29,-4.29,0,*57
1495652581.09,30575,14.81,73476.5,-3.21,-4.17,-4.17,0,*54
1495652582.29,30576,14.81,73482.8,-3.23,-4.29,-4.29,0,*55
1495652583.48,30577,14.75,73486.8,-3.23,-4.37,-4.37,0,*54
1495652584.68,30578,14.81,73488.3,-3.23,-4.29,-4.37,0,*54
1495652585.87,30579,14.81,73486.5,-3.23,-4.53,-4.53,0,*5A
1495652587.06,30580,14.81,73484.8,-3.23,-4.53,-4.61,0,*5D
1495652588.26,30581,14.81,73486.3,-3.23,-4.65,-4.65,0,*5D
1495652589.46,30582,14.81,73490.5,-3.23,-4.53,-4.65,0,*5B
1495652590.68,30583,14.81,73490.8,-3.25,-4.65,-4.57,0,*58
1495652591.9,30584,14.81,73490.0,-3.25,-4.41,-4.33,0,*5B
1495652593.12,30585,14.75,73484.5,-3.25,-4.53,-4.49,0,*54
1495652594.35,30586,14.81,73486.5,-3.25,-4.57,-4.57,0,*5C
1495652595.57,30587,14.75,73480.5,-3.25,-4.65,-4.65,0,*5D
1495652596.79,30588,14.81,73480.0,-3.25,-4.53,-4.53,0,*52
1495652598.01,30589,14.81,73482.0,-3.25,-4.33,-4.33,0,*53
1495652599.23,30590,14.81,73476.3,-3.25,-4.41,-4.41,0,*5B
1495652600.46,30591,14.81,73480.3,-3.25,-4.33,-4.33,0,*5A
1495652601.66,30592,14.75,73482.0,-3.23,-4.29,-4.29,0,*5F
1495652602.87,30593,14.81,73480.3,-3.25,-4.45,-4.53,0,*5F
1495652604.09,30594,14.81,73476.3,-3.25,-4.45,-4.53,0,*58
1495652605.31,30595,14.81,73474.3,-3.25,-4.33,-4.33,0,*5E
1495652606.53,30596,14.75,73466.5,-3.25,-4.45,-4.53,0,*5A
1495652607.75,30597,14.81,73464.8,-3.25,-4.53,-4.45,0,*5B
1495652608.93,30598,14.81,73466.3,-3.23,-4.49,-4.49,0,*55
1495652610.15,30599,14.75,73462.3,-3.25,-4.45,-4.45,0,*52
1495652611.36,30600,14.81,73466.8,-3.25,-4.53,-4.45,0,*56
1495652612.58,30601,14.81,73470.3,-3.25,-4.41,-4.41,0,*50
1495652613.8,30602,14.81,73472.0,-3.25,-4.33,-4.33,0,*53
1495652615.0,30603,14.75,73466.8,-3.27,-4.33,-4.37,0,*54
1495652616.23,30604,14.81,73472.0,-3.25,-4.33,-4.33,0,*55
1495652617.46,30605,14.81,73478.3,-3.25,-4.29,-4.21,0,*5C
1495652618.68,30606,14.81,73482.3,-3.25,-4.33,-4.33,0,*57
1495652619.9,30607,14.81,73482.8,-3.25,-4.33,-4.33,0,*56
1495652621.13,30608,14.81,73478.0,-3.25,-4.33,-4.33,0,*59
1495652622.35,30609,14.81,73480.8,-3.25,-4.29,-4.29,0,*58
1495652623.55,30610,14.75,73478.8,-3.27,-4.13,-4.13,0,*52
1495652624.77,30611,14.81,73482.8,-3.25,-4.17,-4.17,0,*51
1495652625.99,30612,14.81,73482.5,-3.25,-4.17,-4.21,0,*57
1495652627.22,30613,14.81,73476.8,-3.25,-4.17,-4.29,0,*5E
1495652628.45,30614,14.81,73478.3,-3.25,-4.21,-4.21,0,*54
1495652629.67,30615,14.81,73478.8,-3.25,-4.29,-4.29,0,*55
1495652630.87,30616,14.81,73476.8,-3.27,-4.33,-4.33,0,*54
1495652632.09,30617,14.81,73484.3,-3.25,-4.33,-4.33,0,*57
1495652633.3,30618,14.81,73482.5,-3.27,-4.25,-4.25,0,*5A
1495652634.5,30619,14.81,73480.8,-3.27,-4.25,-4.25,0,*5B
1495652635.7,30620,14.81,73478.3,-3.27,-4.21,-4.13,0,*50
1495652636.9,30621,14.81,73478.3,-3.27,-4.13,-4.21,0,*51
1495652638.12,30622,14.75,73474.3,-3.25,-4.09,-4.09,0,*51
1495652639.34,30623,14.81,73480.0,-3.25,-4.21,-4.17,0,*55
1495652640.56,30624,14.81,73480.0,-3.25,-4.17,-4.17,0,*57
1495652641.79,30625,14.81,73484.5,-3.25,-4.17,-4.21,0,*53
1495652643.0,30626,14.75,73484.8,-3.25,-4.17,-4.17,0,*55
1495652644.22,30627,14.81,73490.5,-3.25,-4.17,-4.09,0,*5B
1495652645.45,30628,14.81,73484.8,-3.25,-4.29,-4.21,0,*53
1495652646.69,30629,14.75,73482.8,-3.25,-4.21,-4.21,0,*5A
1495652647.9,30630,14.81,73484.0,-3.25,-4.17,-4.17,0,*52
1495652649.13,30631,14.75,73482.3,-3.25,-4.21,-4.17,0,*56
1495652650.35,30632,14.81,73486.8,-3.25,-4.17,-4.21,0,*55
1495652651.57,30633,14.75,73484.3,-3.25,-4.09,-4.17,0,*5E
1495652652.77,30634,14.81,73488.3,-3.27,-4.13,-4.21,0,*55
1495652653.97,30635,14.81,73488.8,-3.27,-4.13,-4.13,0,*55
1495652655.19,30636,14.81,73484.8,-3.25,-4.09,-4.09,0,*54
1495652656.41,30637,14.81,73488.0,-3.25,-4.09,-4.09,0,*55
1495652657.63,30638,14.75,73484.8,-3.25,-4.09,-4.09,0,*5A
1495652658.85,30639,14.81,73486.8,-3.25,-4.17,-4.09,0,*54
1495652660.04,30640,14.81,73484.0,-3.23,-4.17,-4.17,0,*53
1495652661.26,30641,14.75,73484.8,-3.25,-4.17,-4.17,0,*54
1495652662.45,30642,14.81,73484.5,-3.27,-4.33,-4.33,0,*55
1495652663.69,30643,14.81,73486.8,-3.25,-4.21,-4.21,0,*56
1495652664.88,30644,14.81,73488.5,-3.23,-4.17,-4.17,0,*57
1495652666.1,30645,14.81,73492.0,-3.25,-4.29,-4.17,0,*5D
1495652667.31,30646,14.81,73490.8,-3.25,-4.17,-4.17,0,*53
1495652668.53,30647,14.75,73490.5,-3.25,-4.09,-4.17,0,*5D
1495652669.75,30648,14.81,73490.0,-3.25,-4.17,-4.17,0,*5D
1495652670.95,30649,14.81,73492.8,-3.27,-4.21,-4.21,0,*5E
1495652672.18,30650,14.75,73490.5,-3.25,-4.17,-4.21,0,*51
1495652673.38,30651,14.81,73488.0,-3.27,-4.33,-4.33,0,*57
1495652674.58,30652,14.81,73488.3,-3.27,-4.33,-4.25,0,*53
1495652675.78,30653,14.81,73490.8,-3.27,-4.25,-4.25,0,*55
1495652676.98,30654,14.81,73486.8,-3.27,-4.33,-4.25,0,*55
1495652678.17,30655,14.75,73484.3,-3.27,-4.25,-4.33,0,*54
1495652679.38,30656,14.81,73482.8,-3.27,-4.21,-4.21,0,*50
1495652680.58,30657,14.81,73482.8,-3.27,-4.13,-4.13,0,*51
1495652681.77,30658,14.81,73482.0,-3.27,-4.13,-4.13,0,*5E
1495652682.97,30659,14.81,73480.0,-3.27,-4.13,-4.13,0,*5F
1495652684.17,30660,14.81,73482.8,-3.27,-4.13,-4.09,0,*5E
1495652685.36,30661,14.81,73482.5,-3.27,-4.13,-4.09,0,*5F
1495652686.55,30662,14.81,73476.5,-3.27,-4.09,-4.05,0,*5B
1495652687.75,30663,14.81,73476.0,-3.27,-4.09,-4.09,0,*56
1495652688.94,30664,14.81,73480.3,-3.27,-4.09,-4.09,0,*51
1495652690.13,30665,14.81,73478.8,-3.27,-4.09,-4.09,0,*50
1495652691.33,30666,14.75,73468.0,-3.27,-4.09,-4.09,0,*53
1495652692.55,30667,14.81,73470.3,-3.29,-4.09,-4.09,0,*5C
1495652693.74,30668,14.81,73472.0,-3.27,-4.09,-4.09,0,*5D
1495652694.96,30669,14.81,73476.3,-3.25,-4.05,-4.05,0,*5E
1495652696.18,30670,14.81,73478.0,-3.25,-4.05,-4.05,0,*56
1495652697.46,30671,14.81,73482.8,-3.25,-4.01,-4.01,0,*57
1495652698.71,30672,14.81,73484.3,-3.25,-4.05,-4.01,0,*50
1495652699.98,30673,14.81,73486.5,-3.25,-4.01,-4.01,0,*55
1495652701.24,30674,14.81,73488.0,-3.25,-4.01,-4.05,0,*56
1495652702.43,30675,14.81,73486.0,-3.27,-4.05,-4.09,0,*5D
1495652703.66,30676,14.81,73490.3,-3.23,-4.01,-3.95,0,*5C
1495652704.88,30677,14.81,73488.5,-3.25,-3.87,-3.91,0,*56
1495652706.11,30678,14.81,73486.8,-3.25,-3.91,-3.91,0,*5E
1495652707.36,30679,14.81,73488.3,-3.23,-4.01,-4.01,0,*59
1495652708.59,30680,14.81,73488.8,-3.25,-4.05,-4.05,0,*59
1495652709.84,30681,14.81,73486.8,-3.25,-4.01,-4.05,0,*5C
1495652711.06,30682,14.81,73488.8,-3.25,-4.05,-4.05,0,*5B
1495652712.31,30683,14.81,73488.5,-3.25,-3.91,-4.01,0,*54
1495652713.55,30684,14.81,73488.8,-3.25,-3.91,-3.91,0,*5D
1495652714.79,30685,14.81,73486.3,-3.25,-4.05,-4.01,0,*58
1495652716.02,30686,14.75,73486.3,-3.25,-4.05,-4.05,0,*5F
1495652717.24,30687,14.81,73488.3,-3.25,-4.05,-4.09,0,*52
1495652718.49,30688,14.81,73486.3,-3.23,-4.01,-4.01,0,*57
1495652719.71,30689,14.81,73486.3,-3.25,-4.05,-4.05,0,*50
1495652720.93,30690,14.81,73484.8,-3.25,-4.05,-4.05,0,*58
1495652722.13,30691,14.81,73486.5,-3.23,-4.05,-4.13,0,*58
1495652723.35,30692,14.81,73488.3,-3.25,-4.21,-4.17,0,*5F
1495652724.55,30693,14.81,73490.3,-3.23,-4.05,-4.13,0,*5A
1495652725.74,30694,14.75,73484.8,-3.23,-4.13,-4.05,0,*5D
1495652726.93,30695,14.75,73488.5,-3.23,-4.05,-4.05,0,*5B
1495652728.15,30696,14.81,73498.0,-3.25,-4.09,-4.09,0,*5E
1495652729.35,30697,14.75,73492.0,-3.23,-3.95,-3.95,0,*59
1495652730.6,30698,14.81,73498.0,-3.25,-4.05,-4.01,0,*54
1495652731.79,30699,14.81,73494.3,-3.23,-4.13,-4.05,0,*50
1495652733.04,30700,14.75,73484.8,-3.25,-4.05,-4.01,0,*54
1495652734.26,30701,14.81,73486.8,-3.25,-4.05,-4.05,0,*51
1495652735.54,30702,14.75,73492.3,-3.25,-4.01,-4.01,0,*52
1495652736.79,30703,14.81,73492.8,-3.25,-4.01,-3.91,0,*5D
1495652738.04,30704,14.75,73486.8,-3.25,-4.05,-4.01,0,*50
1495652739.32,30705,14.81,73486.5,-3.25,-4.01,-4.01,0,*55
1495652740.57,30706,14.81,73482.5,-3.25,-4.01,-4.05,0,*52
1495652741.79,30707,14.81,73480.5,-3.23,-4.01,-3.95,0,*5B
1495652743.02,30708,14.81,73484.5,-3.23,-4.01,-3.95,0,*54
1495652744.24,30709,14.81,73484.5,-3.23,-4.01,-3.95,0,*55
1495652745.49,30710,14.81,73484.8,-3.23,-4.01,-4.01,0,*57
1495652746.74,30711,14.75,73482.3,-3.23,-4.01,-4.01,0,*56
1495652748.0,30712,14.75,73484.0,-3.23,-4.01,-4.01,0,*55
1495652749.27,30713,14.81,73494.3,-3.25,-4.01,-4.01,0,*52
1495652750.52,30714,14.81,73494.3,-3.23,-4.01,-4.01,0,*53
1495652751.72,30715,14.75,73480.3,-3.23,-3.95,-3.95,0,*52
1495652752.95,30716,14.81,73482.3,-3.23,-4.01,-3.95,0,*5B
1495652754.17,30717,14.81,73478.5,-3.25,-4.05,-4.05,0,*56
1495652755.42,30718,14.81,73476.5,-3.23,-4.01,-4.01,0,*5F
1495652756.66,30719,14.81,73472.3,-3.25,-4.05,-4.01,0,*5C
1495652757.86,30720,14.81,73474.0,-3.23,-3.95,-3.95,0,*54
1495652759.09,30721,14.81,73480.5,-3.23,-3.95,-4.01,0,*5F
1495652760.34,30722,14.81,73482.0,-3.25,-4.05,-4.01,0,*54
1495652761.56,30723,14.81,73486.3,-3.23,-4.01,-3.83,0,*5A
1495652762.76,30724,14.81,73484.5,-3.23,-3.95,-3.95,0,*50
1495652764.01,30725,14.81,73484.0,-3.23,-4.01,-4.01,0,*51
1495652765.21,30726,14.81,73484.3,-3.23,-3.95,-3.95,0,*52
1495652766.48,30727,14.81,73482.8,-3.25,-4.01,-4.01,0,*55
1495652767.68,30728,14.81,73486.0,-3.23,-3.87,-3.87,0,*5C
1495652768.87,30729,14.81,73480.5,-3.23,-3.87,-3.87,0,*5D
1495652770.07,30730,14.81,73484.0,-3.23,-3.87,-3.87,0,*55
1495652771.26,30731,14.81,73484.0,-3.23,-3.87,-3.83,0,*50
1495652772.46,30732,14.81,73484.5,-3.23,-3.83,-3.83,0,*57
1495652773.66,30733,14.75,73480.3,-3.23,-3.83,-3.75,0,*5F
1495652774.87,30734,14.81,73484.5,-3.23,-3.75,-3.75,0,*51
1495652776.07,30735,14.81,73480.5,-3.23,-3.95,-3.87,0,*53
1495652777.26,30736,14.81,73482.8,-3.23,-3.87,-3.83,0,*57
1495652778.45,30737,14.75,73480.5,-3.23,-3.87,-3.87,0,*52
1495652779.65,30738,14.81,73486.5,-3.23,-3.87,-3.87,0,*5D
1495652780.93,30739,14.75,73480.0,-3.21,-4.01,-4.01,0,*5E
1495652782.21,30740,14.81,73486.5,-3.21,-4.01,-4.01,0,*50
1495652783.4,30741,14.81,73486.5,-3.23,-4.13,-4.05,0,*54
1495652784.6,30742,14.75,73482.8,-3.23,-4.05,-4.05,0,*50
1495652785.82,30743,14.75,73484.3,-3.23,-4.01,-4.05,0,*55
1495652787.05,30744,14.75,73482.3,-3.21,-4.05,-4.05,0,*54
1495652788.27,30745,14.81,73484.0,-3.21,-4.17,-4.13,0,*51
1495652789.49,30746,14.81,73484.3,-3.21,-4.05,-4.05,0,*56
1495652790.69,30747,14.81,73486.5,-3.19,-4.05,-4.05,0,*5C
1495652791.95,30748,14.81,73486.8,-3.21,-4.01,-3.95,0,*52
1495652793.2,30749,14.81,73482.0,-3.23,-4.01,-4.01,0,*5B
1495652794.42,30750,14.81,73480.8,-3.23,-4.01,-3.95,0,*59
1495652795.62,30751,14.81,73476.3,-3.23,-3.95,-3.95,0,*52
1495652796.82,30752,14.81,73482.0,-3.23,-3.95,-3.95,0,*51
1495652798.07,30753,14.75,73482.3,-3.21,-4.01,-3.95,0,*58
1495652799.3,30754,14.75,73482.5,-3.21,-3.95,-3.95,0,*55
1495652800.57,30755,14.81,73480.3,-3.21,-3.71,-3.51,0,*56
1495652801.8,30756,14.81,73480.5,-3.21,-3.75,-3.75,0,*57
1495652803.0,30757,14.81,73484.0,-3.19,-3.87,-3.87,0,*5D
1495652804.23,30758,14.81,73478.5,-3.19,-4.01,-3.95,0,*58
1495652805.45,30759,14.81,73478.8,-3.21,-3.87,-3.95,0,*5B
1495652806.68,30760,14.81,73478.3,-3.21,-3.83,-3.83,0,*52
1495652807.91,30761,14.75,73472.5,-3.21,-3.87,-3.75,0,*5E
1495652809.14,30762,14.81,73480.0,-3.21,-3.83,-3.75,0,*59
1495652810.37,30763,14.81,73482.8,-3.21,-3.83,-3.75,0,*58
1495652811.61,30764,14.81,73484.0,-3.21,-3.75,-3.75,0,*56
1495652812.85,30765,14.81,73482.5,-3.21,-3.71,-3.83,0,*5A
1495652814.1,30766,14.81,73486.5,-3.21,-3.75,-3.71,0,*50
1495652815.34,30767,14.81,73494.3,-3.19,-3.71,-3.71,0,*5E
1495652816.54,30768,14.81,73488.3,-3.19,-3.95,-3.95,0,*51
1495652817.77,30769,14.81,73486.8,-3.21,-4.05,-4.05,0,*5B
1495652818.99,30770,14.75,73488.8,-3.19,-3.95,-4.01,0,*52
1495652820.25,30771,14.81,73492.5,-3.21,-4.01,-4.05,0,*56
1495652821.47,30772,14.81,73490.3,-3.21,-4.05,-4.05,0,*51
1495652822.7,30773,14.81,73484.8,-3.21,-4.13,-4.13,0,*50
1495652823.92,30774,14.81,73490.0,-3.21,-4.05,-4.05,0,*57
1495652825.2,30775,14.81,73490.5,-3.21,-4.01,-4.01,0,*56
1495652826.48,30776,14.81,73480.0,-3.21,-4.01,-4.01,0,*55
1495652827.71,30777,14.75,73476.8,-3.21,-4.13,-4.13,0,*54
1495652828.93,30778,14.75,73474.0,-3.21,-4.13,-4.05,0,*5C
1495652830.16,30779,14.81,73472.8,-3.21,-4.05,-4.05,0,*5A
1495652831.38,30780,14.81,73472.0,-3.21,-4.13,-4.17,0,*58
1495652832.63,30781,14.81,73480.8,-3.21,-4.01,-4.05,0,*59
1495652833.86,30782,14.81,73476.5,-3.21,-4.17,-4.13,0,*5A
1495652835.08,30783,14.81,73478.0,-3.21,-4.37,-4.29,0,*50
1495652836.31,30784,14.81,73480.3,-3.21,-4.25,-4.29,0,*54
1495652837.53,30785,14.81,73476.8,-3.21,-4.17,-4.13,0,*5D
1495652838.76,30786,14.81,73480.3,-3.21,-4.05,-4.05,0,*5A
1495652840.01,30787,14.81,73484.3,-3.23,-4.01,-4.01,0,*59
1495652841.26,30788,14.75,73480.8,-3.19,-4.01,-4.01,0,*5F
1495652842.49,30789,14.81,73482.3,-3.21,-4.13,-4.13,0,*55
1495652843.68,30790,14.81,73476.3,-3.23,-4.13,-4.05,0,*58
1495652844.88,30791,14.75,73478.3,-3.23,-4.17,-4.13,0,*5A
1495652846.07,30792,14.81,73476.5,-3.23,-4.21,-4.17,0,*58
1495652847.26,30793,14.81,73476.3,-3.23,-4.17,-4.17,0,*5C
1495652848.45,30794,14.81,73476.8,-3.23,-4.17,-4.17,0,*5B
1495652849.64,30795,14.81,73476.8,-3.23,-4.13,-4.17,0,*5E
1495652850.84,30796,14.81,73478.5,-3.23,-4.13,-4.13,0,*59
1495652852.06,30797,14.81,73476.5,-3.25,-4.09,-4.17,0,*51
1495652853.28,30798,14.81,73476.3,-3.25,-4.09,-4.09,0,*51
1495652854.5,30799,14.81,73476.5,-3.25,-4.09,-4.09,0,*50
1495652855.72,30800,14.81,73474.8,-3.25,-4.09,-4.05,0,*53
1495652856.97,30801,14.81,73470.5,-3.25,-4.01,-3.91,0,*50
1495652858.17,30802,14.75,73462.0,-3.23,-3.95,-3.87,0,*58
1495652859.39,30803,14.81,73462.3,-3.23,-4.01,-3.87,0,*53
1495652860.64,30804,14.81,73458.5,-3.23,-4.01,-4.01,0,*5D
1495652861.92,30805,14.81,73450.8,-3.25,-4.01,-4.01,0,*5A
1495652863.17,30806,14.81,73448.3,-3.25,-4.05,-4.01,0,*5D
1495652864.39,30807,14.81,73456.0,-3.23,-4.01,-3.95,0,*54
1495652865.59,30808,14.75,73462.8,-3.23,-3.95,-3.87,0,*52
1495652866.78,30809,14.75,73466.3,-3.23,-3.87,-3.87,0,*50
1495652868.01,30810,14.81,73464.3,-3.23,-4.01,-3.95,0,*52
1495652869.21,30811,14.81,73462.8,-3.23,-3.95,-3.95,0,*59
1495652870.4,30812,14.81,73466.5,-3.23,-3.95,-3.95,0,*5A
1495652871.63,30813,14.81,73472.3,-3.21,-3.95,-3.87,0,*5A
1495652872.86,30814,14.81,73472.3,-3.21,-3.87,-3.87,0,*5E
1495652874.09,30815,14.81,73470.8,-3.21,-3.83,-3.83,0,*5F
1495652875.31,30816,14.75,73470.8,-3.21,-3.87,-3.83,0,*58
1495652876.53,30817,14.75,73468.0,-3.21,-3.87,-3.87,0,*5D
1495652877.76,30818,14.81,73454.3,-3.21,-3.95,-3.95,0,*52
1495652878.99,30819,14.81,73444.5,-3.21,-3.95,-3.95,0,*53
1495652880.19,30820,14.75,73432.8,-3.19,-3.95,-3.91,0,*56
1495652881.42,30821,14.81,73444.3,-3.21,-3.95,-3.87,0,*5B
1495652882.65,30822,14.81,73450.0,-3.21,-3.87,-3.95,0,*58
1495652883.88,30823,14.81,73456.8,-3.21,-3.83,-3.83,0,*5A
1495652885.1,30824,14.81,73458.0,-3.21,-3.95,-3.87,0,*5E
1495652886.33,30825,14.81,73466.5,-3.21,-3.95,-3.95,0,*5C
1495652887.56,30826,14.75,73462.0,-3.21,-3.95,-3.95,0,*5F
1495652888.84,30827,14.81,73462.0,-3.21,-4.01,-4.01,0,*5E
1495652890.12,30828,14.81,73458.0,-3.21,-4.01,-4.01,0,*51
1495652891.37,30829,14.81,73450.0,-3.21,-3.95,-4.01,0,*5A
1495652892.65,30830,14.81,73436.5,-3.21,-4.01,-4.01,0,*58
1495652893.86,30831,14.81,73442.5,-3.19,-3.95,-3.95,0,*52
1495652895.08,30832,14.81,73444.5,-3.19,-3.95,-4.01,0,*5B
1495652896.31,30833,14.81,73448.3,-3.21,-4.05,-4.05,0,*5B
1495652897.53,30834,14.81,73454.8,-3.23,-4.01,-3.95,0,*54
1495652898.73,30835,14.81,73458.0,-3.23,-3.95,-3.95,0,*5F
1495652899.96,30836,14.81,73462.0,-3.21,-3.95,-3.95,0,*5E
1495652901.16,30837,14.81,73460.3,-3.19,-3.83,-3.83,0,*54
1495652902.39,30838,14.75,73470.8,-3.21,-3.87,-3.87,0,*50
1495652903.61,30839,14.81,73466.5,-3.21,-3.95,-3.87,0,*52
1495652904.89,30840,14.75,73464.5,-3.21,-4.01,-4.01,0,*5F